Time,TemperatureF,DewpointF,PressureIn,WindDirection,WindDirectionDegrees,WindSpeedMPH,WindSpeedGustMPH,Humidity,HourlyPrecipIn,Conditions,Clouds,dailyrainin,SoftwareType,DateUTC
2013-02-25 00:01:00,69.0,68.0,29.93,East,91,0.0,0.0,97,0.00,,,0.00,,2013-02-25 05:01:00,
2013-02-25 00:11:00,69.0,68.0,29.93,East,91,0.0,0.0,97,0.00,,,0.00,,2013-02-25 05:11:00,
2013-02-25 00:22:00,69.0,68.0,29.91,ESE,106,0.0,1.0,97,0.00,,,0.00,,2013-02-25 05:22:00,
2013-02-25 00:32:00,69.0,68.0,29.91,East,83,1.0,1.0,98,0.00,,,0.00,,2013-02-25 05:32:00,
2013-02-25 00:42:00,69.0,68.0,29.91,East,83,1.0,1.0,98,0.00,,,0.00,,2013-02-25 05:42:00,
2013-02-25 00:52:00,70.0,69.0,29.92,East,94,1.0,3.0,98,0.00,,,0.00,,2013-02-25 05:52:00,
2013-02-25 01:02:00,70.0,69.0,29.92,ESE,106,0.0,5.0,97,0.00,,,0.00,,2013-02-25 06:02:00,
2013-02-25 01:11:00,70.0,69.0,29.92,ESE,106,0.0,5.0,97,0.00,,,0.00,,2013-02-25 06:11:00,
2013-02-25 01:21:00,70.0,69.0,29.92,East,91,0.0,4.0,97,0.00,,,0.00,,2013-02-25 06:21:00,
2013-02-25 01:32:00,70.0,69.0,29.92,ESE,120,0.0,2.0,97,0.00,,,0.00,,2013-02-25 06:32:00,
2013-02-25 01:42:00,70.0,69.0,29.92,ESE,120,0.0,2.0,97,0.00,,,0.00,,2013-02-25 06:42:00,
2013-02-25 01:52:00,70.0,69.0,29.91,East,91,0.0,1.0,97,0.00,,,0.00,,2013-02-25 06:52:00,
2013-02-25 02:01:00,70.0,69.0,29.91,SSE,150,0.0,0.0,97,0.00,,,0.00,,2013-02-25 07:01:00,
2013-02-25 02:11:00,70.0,69.0,29.91,SSE,149,0.0,0.0,97,0.00,,,0.00,,2013-02-25 07:11:00,
2013-02-25 02:21:00,70.0,69.0,29.91,SSE,149,0.0,0.0,97,0.00,,,0.00,,2013-02-25 07:21:00,
2013-02-25 02:32:00,70.0,69.0,29.90,ESE,105,0.0,1.0,97,0.00,,,0.00,,2013-02-25 07:32:00,
2013-02-25 02:42:00,70.0,69.0,29.90,ESE,105,0.0,1.0,97,0.00,,,0.00,,2013-02-25 07:42:00,
2013-02-25 02:52:00,69.0,68.0,29.91,ESE,106,0.0,0.0,97,0.00,,,0.00,,2013-02-25 07:52:00,
2013-02-25 03:01:00,69.0,68.0,29.88,East,96,1.0,1.0,97,0.00,,,0.00,,2013-02-25 08:01:00,
2013-02-25 03:11:00,69.0,68.0,29.88,East,96,1.0,1.0,97,0.00,,,0.00,,2013-02-25 08:11:00,
2013-02-25 03:21:00,69.0,68.0,29.88,East,85,1.0,1.0,97,0.00,,,0.00,,2013-02-25 08:21:00,
2013-02-25 03:32:00,69.0,68.0,29.88,East,82,2.0,2.0,97,0.00,,,0.00,,2013-02-25 08:32:00,
2013-02-25 03:42:00,69.0,68.0,29.88,East,82,2.0,2.0,97,0.00,,,0.00,,2013-02-25 08:42:00,
2013-02-25 03:52:00,69.0,68.0,29.88,East,88,1.0,2.0,97,0.00,,,0.00,,2013-02-25 08:52:00,
2013-02-25 04:01:00,69.0,68.0,29.88,ESE,102,1.0,3.0,97,0.00,,,0.00,,2013-02-25 09:01:00,
2013-02-25 04:12:00,69.0,68.0,29.88,ESE,102,1.0,3.0,97,0.00,,,0.00,,2013-02-25 09:12:00,
2013-02-25 04:21:00,69.0,68.0,29.86,East,80,1.0,3.0,97,0.00,,,0.00,,2013-02-25 09:21:00,
2013-02-25 04:32:00,69.0,68.0,29.86,East,86,1.0,2.0,97,0.00,,,0.00,,2013-02-25 09:32:00,
2013-02-25 04:42:00,69.0,68.0,29.86,East,86,1.0,2.0,97,0.00,,,0.00,,2013-02-25 09:42:00,
2013-02-25 04:52:00,69.0,68.0,29.86,East,94,0.0,2.0,97,0.00,,,0.00,,2013-02-25 09:52:00,
2013-02-25 05:01:00,69.0,68.0,29.86,ENE,73,1.0,3.0,97,0.00,,,0.00,,2013-02-25 10:01:00,
2013-02-25 05:11:00,69.0,68.0,29.86,ENE,73,1.0,3.0,97,0.00,,,0.00,,2013-02-25 10:11:00,
2013-02-25 05:21:00,68.0,67.0,29.86,ENE,75,1.0,2.0,97,0.00,,,0.00,,2013-02-25 10:21:00,
2013-02-25 05:32:00,68.0,67.0,29.86,ENE,69,1.0,2.0,97,0.00,,,0.00,,2013-02-25 10:32:00,
2013-02-25 05:42:00,68.0,67.0,29.86,ENE,69,1.0,2.0,97,0.00,,,0.00,,2013-02-25 10:42:00,
2013-02-25 05:52:00,68.0,67.0,29.85,ENE,76,1.0,2.0,97,0.00,,,0.00,,2013-02-25 10:52:00,
2013-02-25 06:01:00,68.0,67.0,29.85,ESE,107,0.0,2.0,97,0.00,,,0.00,,2013-02-25 11:01:00,
2013-02-25 06:11:00,68.0,67.0,29.85,ESE,107,0.0,2.0,97,0.00,,,0.00,,2013-02-25 11:11:00,
2013-02-25 06:22:00,68.0,67.0,29.86,East,81,0.0,2.0,97,0.00,,,0.00,,2013-02-25 11:22:00,
2013-02-25 06:32:00,68.0,67.0,29.86,South,173,0.0,5.0,97,0.00,,,0.00,,2013-02-25 11:32:00,
2013-02-25 06:42:00,68.0,67.0,29.86,South,173,0.0,5.0,97,0.00,,,0.00,,2013-02-25 11:42:00,
2013-02-25 06:52:00,68.0,67.0,29.88,ENE,65,0.0,2.0,97,0.00,,,0.00,,2013-02-25 11:52:00,
2013-02-25 07:02:00,67.0,66.0,29.89,East,94,0.0,3.0,97,0.00,,,0.00,,2013-02-25 12:02:00,
2013-02-25 07:11:00,67.0,66.0,29.89,East,94,0.0,3.0,97,0.00,,,0.00,,2013-02-25 12:11:00,
2013-02-25 07:22:00,67.0,66.0,29.90,ENE,65,0.0,2.0,97,0.00,,,0.00,,2013-02-25 12:22:00,
2013-02-25 07:32:00,67.0,66.0,29.88,ENE,69,0.0,1.0,97,0.00,,,0.00,,2013-02-25 12:32:00,
2013-02-25 07:42:00,67.0,66.0,29.88,ENE,69,0.0,1.0,97,0.00,,,0.00,,2013-02-25 12:42:00,
2013-02-25 07:56:00,68.0,67.0,29.89,North,350,1.0,3.0,98,0.00,,,0.00,,2013-02-25 12:56:00,
2013-02-25 08:02:00,68.0,67.0,29.89,East,84,0.0,4.0,98,0.00,,,0.00,,2013-02-25 13:02:00,
2013-02-25 08:12:00,68.0,67.0,29.89,East,84,0.0,4.0,98,0.00,,,0.00,,2013-02-25 13:12:00,
2013-02-25 08:23:00,68.0,67.0,29.89,East,88,0.0,3.0,98,0.00,,,0.00,,2013-02-25 13:23:00,
2013-02-25 08:32:00,68.0,67.0,29.90,East,89,2.0,5.0,97,0.00,,,0.00,,2013-02-25 13:32:00,
2013-02-25 08:42:00,68.0,67.0,29.90,East,89,2.0,5.0,97,0.00,,,0.00,,2013-02-25 13:42:00,
2013-02-25 08:52:00,69.0,68.0,29.90,SE,128,0.0,4.0,97,0.00,,,0.00,,2013-02-25 13:52:00,
2013-02-25 09:03:00,70.0,69.0,29.91,ESE,106,0.0,3.0,97,0.00,,,0.00,,2013-02-25 14:03:00,
2013-02-25 09:17:00,70.0,69.0,29.91,ESE,106,0.0,3.0,97,0.00,,,0.00,,2013-02-25 14:17:00,
2013-02-25 09:32:00,72.0,69.0,29.91,ESE,105,2.0,4.0,91,0.00,,,0.00,,2013-02-25 14:32:00,
2013-02-25 09:42:00,72.0,69.0,29.91,ESE,105,2.0,4.0,91,0.00,,,0.00,,2013-02-25 14:42:00,
2013-02-25 09:52:00,74.0,70.0,29.91,SSW,196,3.0,5.0,87,0.00,,,0.00,,2013-02-25 14:52:00,
2013-02-25 10:03:00,75.0,70.0,29.90,SSE,164,1.0,5.0,84,0.00,,,0.00,,2013-02-25 15:03:00,
2013-02-25 10:11:00,75.0,70.0,29.90,SSE,164,1.0,5.0,84,0.00,,,0.00,,2013-02-25 15:11:00,
2013-02-25 10:22:00,76.0,69.0,29.89,SSE,152,2.0,6.0,80,0.00,,,0.00,,2013-02-25 15:22:00,
2013-02-25 10:32:00,77.0,70.0,29.89,ESE,116,2.0,5.0,78,0.00,,,0.00,,2013-02-25 15:32:00,
2013-02-25 10:42:00,77.0,70.0,29.89,ESE,116,2.0,5.0,78,0.00,,,0.00,,2013-02-25 15:42:00,
2013-02-25 10:52:00,77.0,69.0,29.88,SW,228,3.0,8.0,77,0.00,,,0.00,,2013-02-25 15:52:00,
2013-02-25 11:02:00,77.0,70.0,29.89,SSW,195,3.0,11.0,78,0.00,,,0.00,,2013-02-25 16:02:00,
2013-02-25 11:12:00,77.0,70.0,29.89,SSW,195,3.0,11.0,78,0.00,,,0.00,,2013-02-25 16:12:00,
2013-02-25 11:22:00,78.0,70.0,29.89,SSW,198,2.0,9.0,77,0.00,,,0.00,,2013-02-25 16:22:00,
2013-02-25 11:32:00,79.0,70.0,29.89,SSW,207,4.0,9.0,75,0.00,,,0.00,,2013-02-25 16:32:00,
2013-02-25 11:42:00,79.0,70.0,29.89,SSW,207,4.0,9.0,75,0.00,,,0.00,,2013-02-25 16:42:00,
2013-02-25 11:52:00,79.0,70.0,29.88,SE,131,3.0,8.0,74,0.00,,,0.00,,2013-02-25 16:52:00,
2013-02-25 12:01:00,78.0,70.0,29.88,SE,128,2.0,10.0,76,0.00,,,0.00,,2013-02-25 17:01:00,
2013-02-25 12:11:00,78.0,70.0,29.88,SE,128,2.0,10.0,76,0.00,,,0.00,,2013-02-25 17:11:00,
2013-02-25 12:21:00,78.0,70.0,29.87,South,190,2.0,8.0,76,0.00,,,0.00,,2013-02-25 17:21:00,
2013-02-25 12:32:00,78.0,70.0,29.87,SE,145,1.0,7.0,77,0.00,,,0.00,,2013-02-25 17:32:00,
2013-02-25 12:42:00,78.0,70.0,29.87,SE,145,1.0,7.0,77,0.00,,,0.00,,2013-02-25 17:42:00,
2013-02-25 12:52:00,78.0,70.0,29.86,SE,134,2.0,11.0,76,0.00,,,0.00,,2013-02-25 17:52:00,
2013-02-25 13:02:00,80.0,71.0,29.86,SSE,152,4.0,9.0,75,0.00,,,0.00,,2013-02-25 18:02:00,
2013-02-25 13:12:00,80.0,71.0,29.86,SSE,152,4.0,9.0,75,0.00,,,0.00,,2013-02-25 18:12:00,
2013-02-25 13:21:00,79.0,72.0,29.85,South,169,3.0,11.0,78,0.00,,,0.00,,2013-02-25 18:21:00,
2013-02-25 13:33:00,80.0,72.0,29.84,SSW,201,3.0,12.0,77,0.00,,,0.00,,2013-02-25 18:33:00,
2013-02-25 13:42:00,80.0,72.0,29.84,SSW,201,3.0,12.0,77,0.00,,,0.00,,2013-02-25 18:42:00,
2013-02-25 13:52:00,79.0,70.0,29.84,SE,136,3.0,13.0,75,0.00,,,0.00,,2013-02-25 18:52:00,
2013-02-25 14:01:00,80.0,72.0,29.83,South,169,5.0,11.0,76,0.00,,,0.00,,2013-02-25 19:01:00,
2013-02-25 14:11:00,80.0,72.0,29.83,South,169,5.0,11.0,76,0.00,,,0.00,,2013-02-25 19:11:00,
2013-02-25 14:22:00,80.0,72.0,29.82,SW,225,4.0,8.0,77,0.00,,,0.00,,2013-02-25 19:22:00,
2013-02-25 14:32:00,81.0,73.0,29.82,ESE,121,3.0,10.0,77,0.00,,,0.00,,2013-02-25 19:32:00,
2013-02-25 14:42:00,81.0,73.0,29.82,ESE,121,3.0,10.0,77,0.00,,,0.00,,2013-02-25 19:42:00,
2013-02-25 14:52:00,81.0,73.0,29.82,SW,232,6.0,17.0,76,0.00,,,0.00,,2013-02-25 19:52:00,
2013-02-25 15:01:00,81.0,73.0,29.82,West,261,4.0,14.0,76,0.00,,,0.00,,2013-02-25 20:01:00,
2013-02-25 15:11:00,81.0,73.0,29.82,West,261,4.0,14.0,76,0.00,,,0.00,,2013-02-25 20:11:00,
2013-02-25 15:21:00,81.0,73.0,29.82,WSW,240,3.0,15.0,76,0.00,,,0.00,,2013-02-25 20:21:00,
2013-02-25 15:32:00,80.0,72.0,29.82,SW,217,2.0,13.0,77,0.00,,,0.00,,2013-02-25 20:32:00,
2013-02-25 15:42:00,80.0,72.0,29.82,SW,217,2.0,13.0,77,0.00,,,0.00,,2013-02-25 20:42:00,
2013-02-25 15:52:00,79.0,72.0,29.82,West,261,3.0,18.0,78,0.00,,,0.00,,2013-02-25 20:52:00,
2013-02-25 16:01:00,79.0,72.0,29.82,SE,134,3.0,12.0,80,0.00,,,0.00,,2013-02-25 21:01:00,
2013-02-25 16:11:00,79.0,72.0,29.82,SE,134,3.0,12.0,80,0.00,,,0.00,,2013-02-25 21:11:00,
2013-02-25 16:21:00,78.0,72.0,29.81,SSW,212,5.0,12.0,81,0.00,,,0.00,,2013-02-25 21:21:00,
2013-02-25 16:32:00,78.0,72.0,29.81,SW,235,3.0,14.0,82,0.00,,,0.00,,2013-02-25 21:32:00,
2013-02-25 16:42:00,78.0,72.0,29.81,SW,235,3.0,14.0,82,0.00,,,0.00,,2013-02-25 21:42:00,
2013-02-25 16:52:00,78.0,72.0,29.81,WSW,237,4.0,8.0,82,0.00,,,0.00,,2013-02-25 21:52:00,
2013-02-25 17:01:00,78.0,72.0,29.80,SSE,149,2.0,13.0,83,0.00,,,0.00,,2013-02-25 22:01:00,
2013-02-25 17:11:00,78.0,72.0,29.80,SSE,149,2.0,13.0,83,0.00,,,0.00,,2013-02-25 22:11:00,
2013-02-25 17:21:00,78.0,72.0,29.80,WNW,302,5.0,14.0,82,0.00,,,0.00,,2013-02-25 22:21:00,
2013-02-25 17:32:00,78.0,72.0,29.80,ESE,117,3.0,9.0,83,0.00,,,0.00,,2013-02-25 22:32:00,
2013-02-25 17:42:00,78.0,72.0,29.80,ESE,117,3.0,9.0,83,0.00,,,0.00,,2013-02-25 22:42:00,
2013-02-25 17:52:00,78.0,73.0,29.80,SSW,201,4.0,11.0,84,0.00,,,0.00,,2013-02-25 22:52:00,
2013-02-25 18:01:00,77.0,72.0,29.80,SW,218,3.0,18.0,84,0.00,,,0.00,,2013-02-25 23:01:00,
2013-02-25 18:11:00,77.0,72.0,29.80,SW,218,3.0,18.0,84,0.00,,,0.00,,2013-02-25 23:11:00,
2013-02-25 18:22:00,77.0,72.0,29.80,WSW,243,2.0,14.0,85,0.00,,,0.00,,2013-02-25 23:22:00,
2013-02-25 18:32:00,76.0,72.0,29.80,SW,218,2.0,9.0,86,0.00,,,0.00,,2013-02-25 23:32:00,
2013-02-25 18:42:00,76.0,72.0,29.80,SW,218,2.0,9.0,86,0.00,,,0.00,,2013-02-25 23:42:00,
2013-02-25 18:52:00,76.0,72.0,29.80,South,180,3.0,8.0,87,0.00,,,0.00,,2013-02-25 23:52:00,
2013-02-25 19:01:00,75.0,71.0,29.81,South,183,3.0,9.0,88,0.00,,,0.00,,2013-02-26 00:01:00,
2013-02-25 19:12:00,75.0,71.0,29.81,South,183,3.0,9.0,88,0.00,,,0.00,,2013-02-26 00:12:00,
2013-02-25 19:22:00,75.0,71.0,29.80,SW,228,2.0,8.0,88,0.00,,,0.00,,2013-02-26 00:22:00,
2013-02-25 19:32:00,75.0,71.0,29.80,SSE,159,4.0,12.0,88,0.00,,,0.00,,2013-02-26 00:32:00,
2013-02-25 19:42:00,75.0,71.0,29.80,SSE,159,4.0,12.0,88,0.00,,,0.00,,2013-02-26 00:42:00,
2013-02-25 19:52:00,75.0,71.0,29.81,SSW,200,2.0,8.0,88,0.00,,,0.00,,2013-02-26 00:52:00,
2013-02-25 20:02:00,75.0,72.0,29.81,SSE,148,2.0,7.0,89,0.00,,,0.00,,2013-02-26 01:02:00,
2013-02-25 20:11:00,75.0,72.0,29.81,SSE,148,2.0,7.0,89,0.00,,,0.00,,2013-02-26 01:11:00,
2013-02-25 20:21:00,75.0,72.0,29.82,SW,225,2.0,8.0,89,0.00,,,0.00,,2013-02-26 01:21:00,
2013-02-25 20:32:00,74.0,71.0,29.82,SE,125,1.0,4.0,90,0.00,,,0.00,,2013-02-26 01:32:00,
2013-02-25 20:42:00,74.0,71.0,29.82,SE,125,1.0,4.0,90,0.00,,,0.00,,2013-02-26 01:42:00,
2013-02-25 20:52:00,74.0,71.0,29.81,SE,146,1.0,3.0,90,0.00,,,0.00,,2013-02-26 01:52:00,
2013-02-25 21:01:00,74.0,71.0,29.81,SSE,166,1.0,3.0,90,0.00,,,0.00,,2013-02-26 02:01:00,
2013-02-25 21:11:00,74.0,71.0,29.81,SSE,166,1.0,3.0,90,0.00,,,0.00,,2013-02-26 02:11:00,
2013-02-25 21:21:00,74.0,71.0,29.81,SE,124,1.0,5.0,90,0.00,,,0.00,,2013-02-26 02:21:00,
2013-02-25 21:32:00,74.0,71.0,29.81,East,98,2.0,8.0,89,0.00,,,0.00,,2013-02-26 02:32:00,
2013-02-25 21:42:00,74.0,71.0,29.81,East,98,2.0,8.0,89,0.00,,,0.00,,2013-02-26 02:42:00,
2013-02-25 21:52:00,74.0,71.0,29.81,SW,221,1.0,4.0,90,0.00,,,0.00,,2013-02-26 02:52:00,
2013-02-25 22:02:00,73.0,70.0,29.80,SSW,203,0.0,5.0,90,0.00,,,0.00,,2013-02-26 03:02:00,
2013-02-25 22:11:00,73.0,70.0,29.80,SSW,203,0.0,5.0,90,0.00,,,0.00,,2013-02-26 03:11:00,
2013-02-25 22:21:00,73.0,70.0,29.80,SSE,155,0.0,3.0,91,0.00,,,0.00,,2013-02-26 03:21:00,
2013-02-25 22:32:00,72.0,69.0,29.80,SSE,160,0.0,1.0,91,0.00,,,0.00,,2013-02-26 03:32:00,
2013-02-25 22:42:00,72.0,69.0,29.80,SSE,160,0.0,1.0,91,0.00,,,0.00,,2013-02-26 03:42:00,
2013-02-25 22:52:00,72.0,69.0,29.81,East,98,0.0,4.0,91,0.00,,,0.00,,2013-02-26 03:52:00,
2013-02-25 23:01:00,72.0,69.0,29.81,WNW,287,1.0,4.0,91,0.00,,,0.00,,2013-02-26 04:01:00,
2013-02-25 23:11:00,72.0,69.0,29.81,WNW,287,1.0,4.0,91,0.00,,,0.00,,2013-02-26 04:11:00,
2013-02-25 23:22:00,72.0,69.0,29.81,ESE,115,0.0,3.0,91,0.00,,,0.00,,2013-02-26 04:22:00,
2013-02-25 23:32:00,72.0,69.0,29.81,SSW,193,0.0,3.0,91,0.00,,,0.00,,2013-02-26 04:32:00,
2013-02-25 23:42:00,72.0,69.0,29.81,SSW,193,0.0,3.0,91,0.00,,,0.00,,2013-02-26 04:42:00,
2013-02-25 23:52:00,72.0,69.0,29.81,SE,132,0.0,4.0,91,0.00,,,0.00,,2013-02-26 04:52:00,